TimeIST,TemperatureF,Dew PointF,Humidity,Sea Level PressureIn,VisibilityMPH,Wind Direction,Wind SpeedMPH,Gust SpeedMPH,PrecipitationIn,Events,Conditions,WindDirDegrees,DateUTC
12:00 AM,44.6,42.8,93,29.59,6.2,West,8.1,-,N/A,,Scattered Clouds,260,2012-10-03 23:00:00
12:30 AM,44.6,42.8,93,29.59,6.2,West,6.9,-,N/A,,Scattered Clouds,260,2012-10-03 23:30:00
1:00 AM,44,43,96,29.62,19,WSW,8.9,,,,Partly Cloudy,250,2012-10-04 00:00:00
1:00 AM,44.6,42.8,93,29.59,6.2,WSW,8.1,-,N/A,,Scattered Clouds,250,2012-10-04 00:00:00
1:30 AM,44.6,44.6,100,29.59,6.2,West,6.9,-,N/A,,Mostly Cloudy,280,2012-10-04 00:30:00
2:00 AM,44.6,42.8,93,29.62,6.2,West,9.2,-,N/A,,Mostly Cloudy,280,2012-10-04 01:00:00
2:30 AM,44.6,44.6,100,29.62,6.2,West,9.2,-,N/A,,Mostly Cloudy,260,2012-10-04 01:30:00
3:00 AM,44.6,42.8,93,29.62,6.2,West,12.7,-,N/A,,Mostly Cloudy,260,2012-10-04 02:00:00
3:30 AM,44.6,42.8,93,29.62,6.2,West,10.4,-,N/A,,Mostly Cloudy,270,2012-10-04 02:30:00
4:00 AM,44.6,42.8,93,29.62,6.2,West,10.4,-,N/A,,Mostly Cloudy,280,2012-10-04 03:00:00
4:30 AM,44.6,42.8,93,29.62,6.2,West,12.7,-,N/A,,Mostly Cloudy,270,2012-10-04 03:30:00
5:00 AM,44.6,42.8,93,29.62,5.0,West,11.5,-,N/A,,Mostly Cloudy,270,2012-10-04 04:00:00
5:30 AM,44.6,42.8,93,29.65,1.9,West,10.4,-,N/A,,Mostly Cloudy,260,2012-10-04 04:30:00
6:00 AM,42.8,42.8,100,29.65,1.7,West,11.5,-,N/A,,Mostly Cloudy,260,2012-10-04 05:00:00
6:30 AM,42.8,42.8,100,29.65,1.7,West,11.5,-,N/A,,Mostly Cloudy,260,2012-10-04 05:30:00
7:00 AM,43,43,100,29.68,3,WSW,11.2,,,,Mist,250,2012-10-04 06:00:00
7:00 AM,42.8,42.8,100,29.65,2.8,WSW,11.5,-,N/A,,Mostly Cloudy,250,2012-10-04 06:00:00
7:30 AM,44.6,42.8,93,29.65,3.7,WSW,12.7,-,N/A,,Mostly Cloudy,250,2012-10-04 06:30:00
8:00 AM,44.6,44.6,100,29.65,3.7,West,16.1,-,N/A,,Mostly Cloudy,260,2012-10-04 07:00:00
8:30 AM,44.6,44.6,100,29.65,4.3,West,13.8,-,N/A,,Mostly Cloudy,270,2012-10-04 07:30:00
9:00 AM,44.6,44.6,100,29.68,5.0,West,12.7,-,N/A,,Mostly Cloudy,260,2012-10-04 08:00:00
9:30 AM,46.4,44.6,93,29.68,5.6,WSW,11.5,-,N/A,,Mostly Cloudy,250,2012-10-04 08:30:00
10:00 AM,46.4,44.6,93,29.71,5.6,WSW,13.8,-,N/A,,Mostly Cloudy,250,2012-10-04 09:00:00
10:30 AM,46.4,44.6,93,29.71,6.2,West,15.0,-,N/A,,Mostly Cloudy,260,2012-10-04 09:30:00
11:00 AM,46.4,44.6,93,29.71,6.2,West,15.0,-,N/A,,Mostly Cloudy,260,2012-10-04 10:00:00
11:30 AM,48.2,46.4,93,29.71,6.2,WSW,12.7,-,N/A,,Mostly Cloudy,250,2012-10-04 10:30:00
12:00 PM,50.0,46.4,87,29.71,6.2,West,11.5,-,N/A,,Mostly Cloudy,260,2012-10-04 11:00:00
12:30 PM,51.8,46.4,82,29.71,6.2,WSW,12.7,-,N/A,,Mostly Cloudy,240,2012-10-04 11:30:00
1:00 PM,53,46,68,29.73,28,SW,11.2,,,,Partly Cloudy,230,2012-10-04 12:00:00
1:00 PM,51.8,44.6,76,29.71,6.2,WSW,10.4,-,N/A,,Mostly Cloudy,240,2012-10-04 12:00:00
1:30 PM,53.6,46.4,77,29.71,6.2,SW,9.2,-,N/A,,Mostly Cloudy,230,2012-10-04 12:30:00
2:00 PM,53.6,44.6,72,29.68,6.2,SW,10.4,-,N/A,,Mostly Cloudy,230,2012-10-04 13:00:00
2:30 PM,53.6,44.6,72,29.68,6.2,SSW,10.4,-,N/A,,Mostly Cloudy,210,2012-10-04 13:30:00
3:00 PM,55.4,42.8,63,29.68,6.2,SSW,10.4,-,N/A,,Mostly Cloudy,210,2012-10-04 14:00:00
3:30 PM,55.4,42.8,63,29.65,6.2,SSW,16.1,-,N/A,,Mostly Cloudy,210,2012-10-04 14:30:00
4:00 PM,55.4,42.8,63,29.65,6.2,SSW,13.8,-,N/A,,Mostly Cloudy,200,2012-10-04 15:00:00
4:30 PM,53.6,42.8,67,29.65,6.2,SSW,13.8,-,N/A,,Mostly Cloudy,210,2012-10-04 15:30:00
5:00 PM,46.4,42.8,87,29.65,6.2,WSW,23.0,36.8,N/A,Rain,Light Rain Showers,240,2012-10-04 16:00:00
5:30 PM,48.2,44.6,87,29.62,6.2,SSW,8.1,-,N/A,,Mostly Cloudy,210,2012-10-04 16:30:00
6:00 PM,50.0,44.6,82,29.62,6.2,SSW,9.2,-,N/A,,Mostly Cloudy,200,2012-10-04 17:00:00
6:30 PM,50.0,44.6,82,29.62,6.2,South,9.2,-,N/A,,Mostly Cloudy,190,2012-10-04 17:30:00
7:00 PM,49,45,81,29.62,31,South,8.9,,,Rain,Light Rain Showers,190,2012-10-04 18:00:00
7:00 PM,50.0,44.6,82,29.59,6.2,South,8.1,-,N/A,,Mostly Cloudy,190,2012-10-04 18:00:00
7:30 PM,50.0,44.6,82,29.59,6.2,SSW,10.4,-,N/A,,Mostly Cloudy,200,2012-10-04 18:30:00
8:00 PM,50.0,42.8,76,29.59,6.2,SSW,9.2,-,N/A,,Mostly Cloudy,200,2012-10-04 19:00:00
8:30 PM,50.0,42.8,76,29.59,6.2,SSW,10.4,-,N/A,,Mostly Cloudy,210,2012-10-04 19:30:00
9:00 PM,50.0,42.8,76,29.56,6.2,SW,11.5,-,N/A,,Mostly Cloudy,220,2012-10-04 20:00:00
9:30 PM,48.2,42.8,82,29.56,6.2,WSW,11.5,-,N/A,,Mostly Cloudy,240,2012-10-04 20:30:00
10:00 PM,48.2,44.6,87,29.56,6.2,WSW,10.4,-,N/A,,Mostly Cloudy,240,2012-10-04 21:00:00
10:30 PM,48.2,44.6,87,29.56,6.2,WSW,11.5,-,N/A,Rain,Light Rain Showers,240,2012-10-04 21:30:00
11:00 PM,48.2,44.6,87,29.53,6.2,SW,9.2,-,N/A,,Mostly Cloudy,230,2012-10-04 22:00:00
11:30 PM,46.4,44.6,93,29.56,6.2,WSW,8.1,-,N/A,,Mostly Cloudy,250,2012-10-04 22:30:00